EW9824 Weather Reports


time (UTC)temp
C
wind
direction
speed
KPH
gust
KPH
rain 1hr
cm
rain 24hr
cm
rain mn
cm
humidity
%
barometer
mb
20260506001542 23 18 11.3 19.3 0.00 0.00 0.00 50 1015.3
20260506000035 23 18 9.7 19.3 0.00 0.00 0.00 49 1015.4
20260505234529 23 20 8.0 17.7 0.00 0.00 0.00 50 1015.5
20260505233031 23 5 11.3 19.3 0.00 0.00 0.00 50 1015.5
20260505231531 24 11 9.7 19.3 0.00 0.00 0.00 50 1015.5
20260505230032 23 18 8.0 19.3 0.00 0.00 0.00 50 1015.6
20260505224532 23 15 9.7 17.7 0.00 0.00 0.00 51 1015.7
20260505223029 23 5 9.7 22.5 0.00 0.00 0.00 51 1015.8
20260505221531 23 11 11.3 20.9 0.00 0.00 0.00 51 1015.9
20260505220030 23 6 9.7 20.9 0.00 0.00 0.00 50 1016.0
20260505214532 23 3 8.0 16.1 0.00 0.00 0.00 50 1016.1
20260505213029 23 1 8.0 17.7 0.00 0.00 0.00 51 1016.1
20260505211530 23 11 9.7 19.3 0.00 0.00 0.00 52 1016.2
20260505210029 22 5 8.0 16.1 0.00 0.00 0.00 52 1016.3
20260505204608 22 7 6.4 14.5 0.00 0.00 0.00 52 1016.5
20260505203032 22 2 8.0 16.1 0.00 0.00 0.00 53 1016.5
20260505201603 22 349 8.0 16.1 0.00 0.00 0.00 54 1016.6
20260505200146 22 359 6.4 14.5 0.00 0.00 0.00 54 1016.7
20260505194602 22 17 8.0 17.7 0.00 0.00 0.00 53 1016.8
20260505191605 21 40 6.4 17.7 0.00 0.00 0.00 53 1016.8
20260505190029 21 32 4.8 11.3 0.00 0.00 0.00 54 1016.9
20260505184530 20 17 6.4 16.1 0.00 0.00 0.00 56 1017.0
20260505183029 20 43 9.7 17.7 0.00 0.00 0.00 56 1017.1
20260505180029 19 12 9.7 17.7 0.00 0.00 0.00 57 1017.0
20260505174604 18 353 6.4 17.7 0.00 0.00 0.00 59 1016.9
20260505173029 18 333 4.8 12.9 0.00 0.00 0.00 60 1016.9
20260505171532 18 341 6.4 14.5 0.00 0.00 0.00 62 1016.9
20260505170028 17 351 4.8 12.9 0.00 0.00 0.00 63 1016.9
20260505163030 17 16 6.4 14.5 0.00 0.00 0.00 67 1016.8
20260505161531 16 34 8.0 17.7 0.00 0.00 0.00 69 1016.9
20260505153029 15 31 6.4 12.9 0.00 0.00 0.00 78 1016.9
20260505151603 13 27 4.8 9.7 0.00 0.00 0.00 87 1016.8
20260505130104 8 168 3.2 6.4 0.00 0.00 0.00 95 1015.7
20260505123031 8 168 3.2 8.0 0.00 0.00 0.00 95 1015.7
20260505121529 8 185 1.6 6.4 0.00 0.00 0.00 95 1015.7
20260505114528 8 176 3.2 6.4 0.00 0.00 0.00 95 1015.6
20260505113033 8 200 1.6 6.4 0.00 0.00 0.00 95 1015.5
20260505111645 8 175 3.2 6.4 0.00 0.00 0.00 94 1015.5
20260505101532 9 167 1.6 6.4 0.00 0.00 0.00 93 1015.1
20260505100037 9 139 0.0 4.8 0.00 0.00 0.00 92 1015.1
20260505094531 9 145 1.6 4.8 0.00 0.00 0.00 91 1015.0
20260505093033 9 137 1.6 4.8 0.00 0.00 0.00 90 1015.0
20260505091531 9 199 1.6 4.8 0.00 0.00 0.00 89 1014.9
20260505090030 10 175 1.6 6.4 0.00 0.00 0.00 88 1014.8
20260505084603 10 140 0.0 4.8 0.00 0.00 0.00 86 1014.8
20260505083030 11 153 1.6 6.4 0.00 0.00 0.00 83 1014.8
20260505081536 11 223 3.2 8.0 0.00 0.00 0.00 83 1014.8
20260505080104 11 170 4.8 9.7 0.00 0.00 0.00 83 1014.8
20260505074529 12 182 4.8 8.0 0.00 0.00 0.00 82 1014.7
20260505073031 12 172 3.2 8.0 0.00 0.00 0.00 81 1014.7
20260505063107 13 165 4.8 9.7 0.00 0.00 0.00 74 1014.7
20260505061533 15 147 3.2 6.4 0.00 0.00 0.00 69 1014.7
20260505060030 16 192 1.6 16.1 0.00 0.00 0.00 67 1014.8
20260505054531 17 267 9.7 20.9 0.00 0.00 0.00 66 1014.6
20260505053037 17 258 6.4 14.5 0.00 0.00 0.00 66 1014.6
20260505051530 16 236 8.0 20.9 0.00 0.00 0.00 66 1014.6
20260505041541 16 151 3.2 6.4 0.00 0.00 0.00 57 1014.1
20260505040044 17 224 3.2 9.7 0.00 0.00 0.00 53 1013.9
20260505033030 18 247 4.8 14.5 0.00 0.00 0.00 48 1013.4
20260505031528 19 238 6.4 16.1 0.00 0.00 0.00 47 1013.2
20260505030032 20 219 6.4 16.1 0.00 0.00 0.00 46 1013.1
20260505023031 21 230 4.8 14.5 0.00 0.00 0.00 43 1012.9
20260505021605 22 236 4.8 12.9 0.00 0.00 0.00 42 1012.8
20260505020034 22 251 6.4 19.3 0.00 0.00 0.00 41 1012.8
20260505013143 23 242 8.0 19.3 0.00 0.00 0.00 39 1012.6
20260505011530 23 253 9.7 27.4 0.00 0.00 0.00 37 1012.6
20260505010033 25 258 9.7 24.1 0.00 0.00 0.00 35 1012.6
20260505004646 26 245 8.0 17.7 0.00 0.00 0.00 33 1012.6